This demonstration page uses our WeatherBlox Daily Observations layout. Learn more.

Left ArrowRight Arrow

34.74481, -87.66753

Hourly Observations for March 8, 2021

Temp ( °F °C ) Dew Point ( °F °C ) Humidity (%) Winds ( mph kmh ) Pressure ( in mb ) Visibility ( mi km ) Precip ( " mm )
12:53 am 00:53 Clear 38 3.3 31 -0.6 76 76 Calm 30.47 1032 10 16 0.00 0.00
1:53 am 01:53 Clear 38 3.3 31 -0.6 76 76 Calm 30.47 1032 10 16 0.00 0.00
2:53 am 02:53 Clear 36 2.2 29 -1.7 76 76 Calm 30.47 1032 10 16 0.00 0.00
3:53 am 03:53 Clear 34 1.1 29 -1.7 82 82 Calm 30.47 1032 10 16 0.00 0.00
4:53 am 04:53 Clear 33 0.6 28 -2.2 82 82 SSE 3 6 30.50 1033 10 16 0.00 0.00
5:53 am 05:53 Clear 33 0.6 27 -2.8 78 78 Calm 30.52 1033 9 14 0.00 0.00
6:19 am 06:19 Hazy 33 0.6 28 -2.2 82 82 Calm 30.56 1035 2 3 0.00 0.00
6:32 am 06:32 Sunny with Mist and Fog 33 0.6 29 -1.7 85 85 Calm 30.56 1035 3 5 0.00 0.00
6:53 am 06:53 Sunny 34 1.1 30 -1.1 85 85 SSE 3 6 30.53 1034 9 14 0.00 0.00
7:53 am 07:53 Sunny 44 6.7 34 1.1 68 68 ENE 3 6 30.56 1035 10 16 0.00 0.00
8:53 am 08:53 Sunny 50 10 36 2.2 59 59 SE 3 6 30.56 1035 10 16 0.00 0.00
9:53 am 09:53 Sunny 57 13.9 33 0.6 41 41 SSE 3 6 30.56 1035 10 16 0.00 0.00
10:53 am 10:53 Sunny 61 16.1 28 -2.2 29 29 SE 3 6 30.55 1035 10 16 0.00 0.00
11:53 am 11:53 Sunny 64 17.8 27 -2.8 25 25 VRB 3 6 30.53 1034 10 16 0.00 0.00
12:53 pm 12:53 Sunny 65 18.3 28 -2.2 25 25 Calm 30.49 1033 10 16 0.00 0.00
1:53 pm 13:53 Sunny 68 20 28 -2.2 22 22 Calm 30.45 1031 10 16 0.00 0.00
2:53 pm 14:53 Sunny 70 21.1 29 -1.7 22 22 E 6 9 30.44 1031 10 16 0.00 0.00
3:53 pm 15:53 Sunny 70 21.1 29 -1.7 22 22 VRB 6 9 30.43 1031 10 16 0.00 0.00
4:53 pm 16:53 Sunny 69 20.6 29 -1.7 22 22 ENE 6 9 30.43 1030 10 16 0.00 0.00
5:53 pm 17:53 Clear 60 15.6 33 0.6 36 36 E 6 9 30.44 1031 10 16 0.00 0.00
6:53 pm 18:53 Clear 58 14.4 28 -2.2 32 32 Calm 30.45 1031 10 16 0.00 0.00
7:53 pm 19:53 Clear 51 10.6 37 2.8 59 59 Calm 30.45 1031 10 16 0.00 0.00
8:53 pm 20:53 Clear 48 8.9 35 1.7 61 61 Calm 30.45 1031 10 16 0.00 0.00
9:53 pm 21:53 Clear 48 8.9 38 3.3 68 68 Calm 30.45 1031 10 16 0.00 0.00
10:53 pm 22:53 Clear 45 7.2 34 1.1 66 66 Calm 30.44 1031 10 16 0.00 0.00
11:53 pm 23:53 Clear 43 6.1 34 1.1 71 71 Calm 30.42 1030 10 16 0.00 0.00

Powered by AerisWeather